Starlink 11241

operational
NORAD ID: 60936 Int'l Des: 2024-155 Owner: SPXS Country: US Constellation: starlink
LEOCIRCULAR

Über Starlink 11241

Beschreibung wird geladen...

Live-Position

3D-Globus wird geladen...

Nächste Überflüge

Höhenverlauf

Altitude vs Time

uPlot chart will show altitude changes over time

Zweizeiliger Elementsatz

1 60936U 24155N 25353.36835414 -.00001098 00000-0 -42050-5 0 9999
2 60936 53.1589 17.4522 0001298 93.0888 267.0279 15.69704790 75782
Epoch: 19. Dez. 2025 • Age: 14 hours

Aktueller Status

Höhe 365.2 km
Geschwindigkeit 7.70 km/s
Subsatellitenpunkt 52.28°N, 46.11°E
Startdatum 31. Aug. 2024
Alter 1.3 years
Typ internet

Technische Details

Klassifizierung Payload
Masse 960.00 kg
Trockenmasse 910.00 kg
Gesamtmasse 960.00 kg
Länge 0.30 m
Durchmesser 4.10 m
Spannweite 29.00 m
Form Box + pan
Hersteller SPXS
Bus-Typ Starlink V2MD
Phasenstatus In Orbit
Besitzer/Staat SPXS/US

Große Konstellationen

Loading constellations...